| time (UTC) | temp C | wind direction | speed KPH | gust KPH | rain 1hr cm | rain 24hr cm | rain mn cm | humidity % | barometer mb |
| 20260505124555 | 7 | 109 | 0.0 | 0.0 | 0.00 | 0.00 | 0.00 | 53 | 1014.3 |
| 20260505124051 | 7 | 130 | 0.0 | 0.0 | 0.00 | 0.00 | 0.00 | 53 | 1014.3 |
| 20260505123548 | 7 | 123 | 0.0 | 0.0 | 0.00 | 0.00 | 0.00 | 53 | 1014.4 |
| 20260505123044 | 7 | 115 | 0.0 | 0.0 | 0.00 | 0.00 | 0.00 | 53 | 1014.3 |
| 20260505122541 | 7 | 124 | 0.0 | 0.0 | 0.00 | 0.00 | 0.00 | 53 | 1014.2 |
| 20260505122038 | 7 | 118 | 0.0 | 0.0 | 0.00 | 0.00 | 0.00 | 53 | 1014.4 |
| 20260505121534 | 7 | 112 | 0.0 | 0.0 | 0.00 | 0.00 | 0.00 | 53 | 1014.4 |
| 20260505121031 | 7 | 108 | 0.0 | 0.0 | 0.00 | 0.00 | 0.00 | 52 | 1014.4 |
| 20260505120528 | 7 | 105 | 0.0 | 1.6 | 0.00 | 0.00 | 0.00 | 52 | 1014.2 |
| 20260505120023 | 6 | 115 | 0.0 | 1.6 | 0.00 | 0.00 | 0.00 | 53 | 1014.2 |
| 20260505115518 | 6 | 84 | 0.0 | 0.0 | 0.00 | 0.00 | 0.00 | 53 | 1013.9 |
| 20260505115016 | 6 | 115 | 0.0 | 0.0 | 0.00 | 0.00 | 0.00 | 52 | 1014.2 |
| 20260505114513 | 7 | 109 | 0.0 | 1.6 | 0.00 | 0.00 | 0.00 | 52 | 1013.9 |
| 20260505114009 | 7 | 92 | 0.0 | 0.0 | 0.00 | 0.00 | 0.00 | 51 | 1013.8 |
| 20260505113506 | 7 | 107 | 0.0 | 0.0 | 0.00 | 0.00 | 0.00 | 52 | 1013.9 |
| 20260505113001 | 7 | 115 | 0.0 | 1.6 | 0.00 | 0.00 | 0.00 | 51 | 1014.2 |
| 20260505112458 | 7 | 79 | 1.6 | 1.6 | 0.00 | 0.00 | 0.00 | 49 | 1014.3 |
| 20260505111955 | 7 | 48 | 3.2 | 4.8 | 0.00 | 0.00 | 0.00 | 50 | 1014.2 |
| 20260505111449 | 7 | 79 | 0.0 | 0.0 | 0.00 | 0.00 | 0.00 | 50 | 1014.2 |
| 20260505110946 | 7 | 83 | 0.0 | 0.0 | 0.00 | 0.00 | 0.00 | 49 | 1014.4 |
| 20260505110443 | 7 | 110 | 0.0 | 0.0 | 0.00 | 0.00 | 0.00 | 50 | 1014.4 |
| 20260505101908 | 7 | 99 | 0.0 | 1.6 | 0.00 | 0.00 | 0.00 | 49 | 1014.4 |
| 20260505101402 | 7 | 129 | 0.0 | 0.0 | 0.00 | 0.00 | 0.00 | 49 | 1014.2 |
| 20260505100859 | 7 | 111 | 0.0 | 0.0 | 0.00 | 0.00 | 0.00 | 48 | 1014.2 |
| 20260505100355 | 7 | 109 | 0.0 | 1.6 | 0.00 | 0.00 | 0.00 | 48 | 1014.2 |
| 20260505095851 | 7 | 109 | 0.0 | 1.6 | 0.00 | 0.00 | 0.00 | 48 | 1014.1 |
| 20260505095349 | 8 | 115 | 0.0 | 3.2 | 0.00 | 0.00 | 0.00 | 47 | 1013.9 |
| 20260505094845 | 7 | 107 | 0.0 | 0.0 | 0.00 | 0.00 | 0.00 | 48 | 1014.2 |
| 20260505094342 | 7 | 111 | 0.0 | 0.0 | 0.00 | 0.00 | 0.00 | 48 | 1014.1 |
| 20260505093837 | 7 | 129 | 0.0 | 0.0 | 0.00 | 0.00 | 0.00 | 47 | 1014.1 |
| 20260505093335 | 8 | 120 | 0.0 | 0.0 | 0.00 | 0.00 | 0.00 | 47 | 1014.1 |
| 20260505092832 | 8 | 124 | 0.0 | 0.0 | 0.00 | 0.00 | 0.00 | 47 | 1013.9 |
| 20260505092330 | 8 | 91 | 0.0 | 0.0 | 0.00 | 0.00 | 0.00 | 47 | 1013.9 |
| 20260505091827 | 8 | 107 | 0.0 | 0.0 | 0.00 | 0.00 | 0.00 | 45 | 1014.1 |
| 20260505091325 | 8 | 88 | 1.6 | 1.6 | 0.00 | 0.00 | 0.00 | 45 | 1014.1 |
| 20260505090823 | 8 | 75 | 1.6 | 3.2 | 0.00 | 0.00 | 0.00 | 45 | 1014.4 |
| 20260505090321 | 8 | 94 | 0.0 | 0.0 | 0.00 | 0.00 | 0.00 | 47 | 1014.4 |
| 20260505085818 | 8 | 112 | 0.0 | 0.0 | 0.00 | 0.00 | 0.00 | 46 | 1014.4 |
| 20260505085316 | 8 | 148 | 0.0 | 1.6 | 0.00 | 0.00 | 0.00 | 46 | 1014.8 |
| 20260505084813 | 8 | 77 | 1.6 | 1.6 | 0.00 | 0.00 | 0.00 | 46 | 1014.5 |
| 20260505084312 | 8 | 115 | 0.0 | 0.0 | 0.00 | 0.00 | 0.00 | 45 | 1014.8 |
| 20260505083808 | 8 | 110 | 0.0 | 0.0 | 0.00 | 0.00 | 0.00 | 45 | 1014.8 |
| 20260505083306 | 9 | 110 | 0.0 | 0.0 | 0.00 | 0.00 | 0.00 | 44 | 1015.3 |
| 20260505082802 | 10 | 131 | 0.0 | 0.0 | 0.00 | 0.00 | 0.00 | 43 | 1014.9 |
| 20260505082259 | 10 | 122 | 0.0 | 0.0 | 0.00 | 0.00 | 0.00 | 43 | 1015.0 |
| 20260505081754 | 9 | 84 | 1.6 | 3.2 | 0.00 | 0.00 | 0.00 | 43 | 1014.9 |
| 20260505081252 | 9 | 79 | 1.6 | 1.6 | 0.00 | 0.00 | 0.00 | 43 | 1015.0 |
| 20260505080748 | 10 | 93 | 0.0 | 1.6 | 0.00 | 0.00 | 0.00 | 41 | 1015.0 |
| 20260505080244 | 10 | 115 | 1.6 | 6.4 | 0.00 | 0.00 | 0.00 | 41 | 1015.0 |
| 20260505075740 | 10 | 104 | 1.6 | 1.6 | 0.00 | 0.00 | 0.00 | 42 | 1015.4 |
| 20260505075237 | 10 | 65 | 1.6 | 3.2 | 0.00 | 0.00 | 0.00 | 41 | 1015.3 |
| 20260505074735 | 10 | 115 | 0.0 | 1.6 | 0.00 | 0.00 | 0.00 | 42 | 1015.4 |
| 20260505074232 | 10 | 79 | 1.6 | 3.2 | 0.00 | 0.00 | 0.00 | 40 | 1015.2 |
| 20260505073729 | 9 | 118 | 0.0 | 0.0 | 0.00 | 0.00 | 0.00 | 40 | 1015.4 |
| 20260505073227 | 9 | 111 | 0.0 | 1.6 | 0.00 | 0.00 | 0.00 | 40 | 1015.4 |
| 20260505072723 | 8 | 115 | 0.0 | 1.6 | 0.00 | 0.00 | 0.00 | 40 | 1015.4 |
| 20260505072219 | 9 | 151 | 1.6 | 1.6 | 0.00 | 0.00 | 0.00 | 39 | 1015.5 |
| 20260505071715 | 9 | 88 | 1.6 | 3.2 | 0.00 | 0.00 | 0.00 | 39 | 1015.4 |
| 20260505071212 | 10 | 118 | 0.0 | 0.0 | 0.00 | 0.00 | 0.00 | 38 | 1015.5 |
| 20260505070710 | 10 | 106 | 1.6 | 3.2 | 0.00 | 0.00 | 0.00 | 36 | 1015.8 |
| 20260505070206 | 10 | 64 | 1.6 | 3.2 | 0.00 | 0.00 | 0.00 | 37 | 1015.4 |
| 20260505065702 | 9 | 37 | 1.6 | 3.2 | 0.00 | 0.00 | 0.00 | 38 | 1015.3 |
| 20260505065159 | 9 | 93 | 1.6 | 3.2 | 0.00 | 0.00 | 0.00 | 37 | 1015.4 |
| 20260505064656 | 10 | 57 | 3.2 | 3.2 | 0.00 | 0.00 | 0.00 | 36 | 1014.8 |
| 20260505064154 | 10 | 99 | 0.0 | 0.0 | 0.00 | 0.00 | 0.00 | 36 | 1015.0 |
| 20260505063651 | 10 | 109 | 0.0 | 0.0 | 0.00 | 0.00 | 0.00 | 36 | 1014.7 |
| 20260505063147 | 10 | 138 | 0.0 | 1.6 | 0.00 | 0.00 | 0.00 | 36 | 1014.8 |
| 20260505062643 | 9 | 139 | 0.0 | 1.6 | 0.00 | 0.00 | 0.00 | 36 | 1014.7 |
| 20260505062141 | 9 | 120 | 0.0 | 0.0 | 0.00 | 0.00 | 0.00 | 36 | 1014.7 |
| 20260505061638 | 9 | 116 | 0.0 | 0.0 | 0.00 | 0.00 | 0.00 | 36 | 1014.7 |
| 20260505061136 | 10 | 126 | 0.0 | 0.0 | 0.00 | 0.00 | 0.00 | 35 | 1014.9 |
| 20260505060633 | 10 | 124 | 0.0 | 0.0 | 0.00 | 0.00 | 0.00 | 35 | 1015.2 |
| 20260505060130 | 10 | 116 | 1.6 | 1.6 | 0.00 | 0.00 | 0.00 | 34 | 1015.0 |
| 20260505055625 | 10 | 127 | 3.2 | 4.8 | 0.00 | 0.00 | 0.00 | 34 | 1015.0 |
| 20260505055122 | 10 | 124 | 0.0 | 1.6 | 0.00 | 0.00 | 0.00 | 34 | 1015.0 |
| 20260505054619 | 10 | 147 | 1.6 | 1.6 | 0.00 | 0.00 | 0.00 | 34 | 1014.9 |
| 20260505054117 | 11 | 119 | 0.0 | 3.2 | 0.00 | 0.00 | 0.00 | 34 | 1014.9 |
| 20260505053614 | 11 | 134 | 0.0 | 1.6 | 0.00 | 0.00 | 0.00 | 33 | 1015.0 |
| 20260505053111 | 11 | 112 | 0.0 | 1.6 | 0.00 | 0.00 | 0.00 | 33 | 1015.0 |
| 20260505052608 | 11 | 125 | 0.0 | 1.6 | 0.00 | 0.00 | 0.00 | 32 | 1014.8 |
| 20260505052105 | 12 | 125 | 0.0 | 1.6 | 0.00 | 0.00 | 0.00 | 31 | 1014.9 |
| 20260505051602 | 12 | 109 | 1.6 | 4.8 | 0.00 | 0.00 | 0.00 | 31 | 1014.9 |
| 20260505051100 | 12 | 135 | 0.0 | 4.8 | 0.00 | 0.00 | 0.00 | 31 | 1014.7 |
| 20260505050558 | 12 | 159 | 1.6 | 3.2 | 0.00 | 0.00 | 0.00 | 31 | 1014.7 |
| 20260505041526 | 14 | 197 | 8.0 | 11.3 | 0.00 | 0.00 | 0.00 | 29 | 1014.4 |
| 20260505041023 | 13 | 153 | 0.0 | 4.8 | 0.00 | 0.00 | 0.00 | 31 | 1014.4 |
| 20260505040520 | 13 | 125 | 1.6 | 3.2 | 0.00 | 0.00 | 0.00 | 31 | 1014.3 |
| 20260505040017 | 13 | 146 | 1.6 | 4.8 | 0.00 | 0.00 | 0.00 | 32 | 1014.4 |
| 20260505035513 | 12 | 132 | 0.0 | 0.0 | 0.00 | 0.00 | 0.00 | 34 | 1014.3 |
| 20260505035010 | 12 | 146 | 0.0 | 0.0 | 0.00 | 0.00 | 0.00 | 34 | 1014.1 |
| 20260505034507 | 11 | 142 | 0.0 | 0.0 | 0.00 | 0.00 | 0.00 | 36 | 1013.8 |
| 20260505034004 | 12 | 126 | 0.0 | 0.0 | 0.00 | 0.00 | 0.00 | 34 | 1014.1 |
| 20260505033500 | 11 | 96 | 1.6 | 1.6 | 0.00 | 0.00 | 0.00 | 34 | 1013.8 |
| 20260505032959 | 12 | 122 | 0.0 | 0.0 | 0.00 | 0.00 | 0.00 | 34 | 1013.6 |
| 20260505032456 | 12 | 114 | 0.0 | 0.0 | 0.00 | 0.00 | 0.00 | 34 | 1013.7 |
| 20260505031952 | 12 | 87 | 0.0 | 1.6 | 0.00 | 0.00 | 0.00 | 34 | 1013.9 |
| 20260505031449 | 12 | 112 | 0.0 | 1.6 | 0.00 | 0.00 | 0.00 | 34 | 1013.8 |
| 20260505030946 | 12 | 118 | 0.0 | 0.0 | 0.00 | 0.00 | 0.00 | 33 | 1013.8 |
| 20260505030442 | 13 | 108 | 0.0 | 1.6 | 0.00 | 0.00 | 0.00 | 32 | 1013.7 |
| 20260505025937 | 13 | 99 | 0.0 | 1.6 | 0.00 | 0.00 | 0.00 | 32 | 1013.8 |
| 20260505025435 | 13 | 123 | 0.0 | 0.0 | 0.00 | 0.00 | 0.00 | 31 | 1013.6 |
| 20260505024934 | 13 | 108 | 0.0 | 1.6 | 0.00 | 0.00 | 0.00 | 31 | 1013.6 |
| 20260505024431 | 13 | 110 | 0.0 | 0.0 | 0.00 | 0.00 | 0.00 | 31 | 1013.4 |
| 20260505023928 | 13 | 115 | 0.0 | 0.0 | 0.00 | 0.00 | 0.00 | 30 | 1013.4 |
| 20260505023425 | 14 | 117 | 0.0 | 0.0 | 0.00 | 0.00 | 0.00 | 30 | 1013.4 |
| 20260505022922 | 14 | 120 | 0.0 | 0.0 | 0.00 | 0.00 | 0.00 | 30 | 1013.6 |
| 20260505022420 | 14 | 124 | 0.0 | 0.0 | 0.00 | 0.00 | 0.00 | 29 | 1013.6 |
| 20260505021916 | 15 | 116 | 0.0 | 0.0 | 0.00 | 0.00 | 0.00 | 29 | 1013.8 |
| 20260505021413 | 15 | 147 | 1.6 | 4.8 | 0.00 | 0.00 | 0.00 | 29 | 1013.6 |
| 20260505020908 | 15 | 159 | 0.0 | 3.2 | 0.00 | 0.00 | 0.00 | 28 | 1013.7 |
| 20260505020404 | 15 | 133 | 1.6 | 1.6 | 0.00 | 0.00 | 0.00 | 28 | 1013.6 |
| 20260505015901 | 15 | 115 | 1.6 | 1.6 | 0.00 | 0.00 | 0.00 | 28 | 1013.7 |
| 20260505015358 | 15 | 130 | 0.0 | 4.8 | 0.00 | 0.00 | 0.00 | 27 | 1013.4 |
| 20260505014856 | 15 | 129 | 3.2 | 4.8 | 0.00 | 0.00 | 0.00 | 27 | 1013.6 |
| 20260505014352 | 15 | 172 | 3.2 | 3.2 | 0.00 | 0.00 | 0.00 | 27 | 1013.7 |
| 20260505013849 | 15 | 153 | 1.6 | 4.8 | 0.00 | 0.00 | 0.00 | 26 | 1013.3 |
| 20260505013346 | 15 | 108 | 3.2 | 6.4 | 0.00 | 0.00 | 0.00 | 26 | 1013.4 |
| 20260505012845 | 15 | 126 | 0.0 | 6.4 | 0.00 | 0.00 | 0.00 | 25 | 1013.6 |
| 20260505012342 | 16 | 160 | 3.2 | 4.8 | 0.00 | 0.00 | 0.00 | 25 | 1013.6 |
| 20260505011838 | 16 | 215 | 0.0 | 4.8 | 0.00 | 0.00 | 0.00 | 25 | 1013.3 |
| 20260505011335 | 16 | 148 | 8.0 | 14.5 | 0.00 | 0.00 | 0.00 | 24 | 1013.3 |
| 20260505010831 | 16 | 168 | 3.2 | 14.5 | 0.00 | 0.00 | 0.00 | 24 | 1013.3 |
| 20260505010327 | 16 | 116 | 1.6 | 17.7 | 0.00 | 0.00 | 0.00 | 24 | 1013.3 |
| 20260505005823 | 16 | 122 | 1.6 | 3.2 | 0.00 | 0.00 | 0.00 | 25 | 1012.9 |
| 20260505005320 | 16 | 137 | 0.0 | 11.3 | 0.00 | 0.00 | 0.00 | 24 | 1013.1 |
| 20260505004818 | 17 | 153 | 1.6 | 3.2 | 0.00 | 0.00 | 0.00 | 24 | 1013.1 |
| 20260505004314 | 17 | 269 | 4.8 | 6.4 | 0.00 | 0.00 | 0.00 | 24 | 1013.2 |
| 20260505003812 | 17 | 207 | 3.2 | 6.4 | 0.00 | 0.00 | 0.00 | 24 | 1013.4 |
| 20260505003309 | 17 | 182 | 4.8 | 6.4 | 0.00 | 0.00 | 0.00 | 23 | 1013.4 |
| 20260505002804 | 17 | 198 | 3.2 | 4.8 | 0.00 | 0.00 | 0.00 | 22 | 1013.4 |
| 20260505002303 | 17 | 185 | 3.2 | 4.8 | 0.00 | 0.00 | 0.00 | 22 | 1013.4 |
| 20260505001800 | 17 | 188 | 4.8 | 6.4 | 0.00 | 0.00 | 0.00 | 21 | 1013.4 |
| 20260505001257 | 17 | 249 | 1.6 | 12.9 | 0.00 | 0.00 | 0.00 | 21 | 1013.4 |
| 20260505000754 | 18 | 217 | 9.7 | 17.7 | 0.00 | 0.00 | 0.00 | 20 | 1013.6 |
| 20260505000252 | 18 | 164 | 3.2 | 4.8 | 0.00 | 0.00 | 0.00 | 20 | 1013.3 |
| 20260504235748 | 18 | 151 | 3.2 | 4.8 | 0.00 | 0.00 | 0.00 | 19 | 1013.4 |
| 20260504235244 | 17 | 355 | 6.4 | 11.3 | 0.00 | 0.00 | 0.00 | 19 | 1013.2 |
| 20260504234742 | 17 | 217 | 3.2 | 4.8 | 0.00 | 0.00 | 0.00 | 19 | 1013.4 |
| 20260504234239 | 18 | 176 | 8.0 | 16.1 | 0.00 | 0.00 | 0.00 | 19 | 1013.6 |
| 20260504233735 | 18 | 164 | 6.4 | 12.9 | 0.00 | 0.00 | 0.00 | 19 | 1013.6 |
| 20260504233231 | 18 | 162 | 4.8 | 12.9 | 0.00 | 0.00 | 0.00 | 18 | 1013.6 |
| 20260504232728 | 18 | 154 | 3.2 | 14.5 | 0.00 | 0.00 | 0.00 | 17 | 1013.6 |
| 20260504232225 | 18 | 265 | 4.8 | 12.9 | 0.00 | 0.00 | 0.00 | 18 | 1013.6 |
| 20260504231722 | 18 | 135 | 1.6 | 4.8 | 0.00 | 0.00 | 0.00 | 18 | 1013.4 |
| 20260504231218 | 18 | 211 | 9.7 | 14.5 | 0.00 | 0.00 | 0.00 | 17 | 1013.4 |
| 20260504230714 | 18 | 178 | 6.4 | 16.1 | 0.00 | 0.00 | 0.00 | 17 | 1013.3 |
| 20260504230213 | 19 | 232 | 14.5 | 24.1 | 0.00 | 0.00 | 0.00 | 16 | 1013.7 |
| 20260504225712 | 20 | 197 | 3.2 | 9.7 | 0.00 | 0.00 | 0.00 | 16 | 1013.2 |
| 20260504225207 | 20 | 221 | 6.4 | 9.7 | 0.00 | 0.00 | 0.00 | 16 | 1013.3 |
| 20260504224705 | 20 | 200 | 8.0 | 12.9 | 0.00 | 0.00 | 0.00 | 16 | 1013.3 |
| 20260504224202 | 20 | 226 | 3.2 | 9.7 | 0.00 | 0.00 | 0.00 | 16 | 1013.3 |
| 20260504223658 | 20 | 172 | 6.4 | 11.3 | 0.00 | 0.00 | 0.00 | 17 | 1013.7 |
| 20260504223154 | 19 | 226 | 11.3 | 16.1 | 0.00 | 0.00 | 0.00 | 16 | 1013.7 |
| 20260504222651 | 19 | 180 | 6.4 | 22.5 | 0.00 | 0.00 | 0.00 | 16 | 1013.8 |
| 20260504222148 | 19 | 306 | 17.7 | 27.4 | 0.00 | 0.00 | 0.00 | 17 | 1013.3 |
| 20260504221645 | 19 | 308 | 4.8 | 16.1 | 0.00 | 0.00 | 0.00 | 20 | 1013.7 |
| 20260504221142 | 20 | 212 | 6.4 | 9.7 | 0.00 | 0.00 | 0.00 | 20 | 1013.7 |
| 20260504220638 | 19 | 211 | 1.6 | 9.7 | 0.00 | 0.00 | 0.00 | 21 | 1013.7 |
| 20260504220136 | 20 | 139 | 3.2 | 4.8 | 0.00 | 0.00 | 0.00 | 20 | 1013.8 |
| 20260504215632 | 20 | 132 | 0.0 | 4.8 | 0.00 | 0.00 | 0.00 | 21 | 1013.8 |
| 20260504215130 | 20 | 137 | 6.4 | 11.3 | 0.00 | 0.00 | 0.00 | 20 | 1014.1 |
| 20260504214626 | 18 | 137 | 3.2 | 11.3 | 0.00 | 0.00 | 0.00 | 22 | 1014.3 |
| 20260504214122 | 18 | 133 | 3.2 | 6.4 | 0.00 | 0.00 | 0.00 | 22 | 1014.2 |
| 20260504213619 | 18 | 254 | 6.4 | 12.9 | 0.00 | 0.00 | 0.00 | 22 | 1014.4 |
| 20260504213116 | 17 | 230 | 6.4 | 11.3 | 0.00 | 0.00 | 0.00 | 22 | 1014.7 |
| 20260504212612 | 17 | 200 | 4.8 | 6.4 | 0.00 | 0.00 | 0.00 | 22 | 1014.4 |
| 20260504212109 | 17 | 15 | 4.8 | 6.4 | 0.00 | 0.00 | 0.00 | 22 | 1014.9 |
| 20260504211606 | 18 | 127 | 3.2 | 6.4 | 0.00 | 0.00 | 0.00 | 21 | 1015.0 |
| 20260504211102 | 17 | 202 | 6.4 | 12.9 | 0.00 | 0.00 | 0.00 | 21 | 1015.0 |
| 20260504210600 | 17 | 191 | 3.2 | 11.3 | 0.00 | 0.00 | 0.00 | 21 | 1015.2 |
| 20260504210056 | 17 | 177 | 4.8 | 6.4 | 0.00 | 0.00 | 0.00 | 21 | 1015.4 |
| 20260504205554 | 18 | 236 | 4.8 | 11.3 | 0.00 | 0.00 | 0.00 | 21 | 1015.2 |
| 20260504205052 | 17 | 155 | 8.0 | 11.3 | 0.00 | 0.00 | 0.00 | 20 | 1015.4 |
| 20260504204549 | 18 | 209 | 6.4 | 11.3 | 0.00 | 0.00 | 0.00 | 21 | 1015.4 |
| 20260504204044 | 17 | 179 | 1.6 | 11.3 | 0.00 | 0.00 | 0.00 | 22 | 1015.2 |
| 20260504203541 | 17 | 170 | 6.4 | 11.3 | 0.00 | 0.00 | 0.00 | 22 | 1015.5 |
| 20260504203038 | 17 | 158 | 8.0 | 11.3 | 0.00 | 0.00 | 0.00 | 22 | 1015.5 |
| 20260504202533 | 18 | 136 | 1.6 | 6.4 | 0.00 | 0.00 | 0.00 | 21 | 1015.7 |
| 20260504202031 | 17 | 166 | 8.0 | 11.3 | 0.00 | 0.00 | 0.00 | 22 | 1015.5 |
| 20260504201528 | 17 | 144 | 1.6 | 3.2 | 0.00 | 0.00 | 0.00 | 22 | 1015.8 |
| 20260504201026 | 17 | 178 | 1.6 | 4.8 | 0.00 | 0.00 | 0.00 | 20 | 1016.0 |
| 20260504200521 | 17 | 144 | 4.8 | 6.4 | 0.00 | 0.00 | 0.00 | 20 | 1015.7 |
| 20260504200019 | 17 | 50 | 6.4 | 9.7 | 0.00 | 0.00 | 0.00 | 22 | 1015.8 |
| 20260504195515 | 17 | 152 | 1.6 | 9.7 | 0.00 | 0.00 | 0.00 | 23 | 1016.0 |
| 20260504195011 | 17 | 260 | 3.2 | 6.4 | 0.00 | 0.00 | 0.00 | 22 | 1016.0 |
| 20260504194508 | 17 | 118 | 1.6 | 12.9 | 0.00 | 0.00 | 0.00 | 22 | 1015.9 |
| 20260504194003 | 18 | 181 | 3.2 | 4.8 | 0.00 | 0.00 | 0.00 | 22 | 1015.8 |
| 20260504193500 | 18 | 149 | 1.6 | 12.9 | 0.00 | 0.00 | 0.00 | 22 | 1015.8 |
| 20260504192959 | 17 | 154 | 4.8 | 9.7 | 0.00 | 0.00 | 0.00 | 21 | 1016.0 |
| 20260504192456 | 17 | 207 | 8.0 | 14.5 | 0.00 | 0.00 | 0.00 | 20 | 1015.9 |
| 20260504191955 | 18 | 265 | 6.4 | 9.7 | 0.00 | 0.00 | 0.00 | 19 | 1015.9 |
| 20260504191452 | 17 | 260 | 1.6 | 4.8 | 0.00 | 0.00 | 0.00 | 21 | 1016.0 |
| 20260504190947 | 17 | 193 | 1.6 | 6.4 | 0.00 | 0.00 | 0.00 | 21 | 1016.3 |
| 20260504190443 | 17 | 137 | 1.6 | 4.8 | 0.00 | 0.00 | 0.00 | 22 | 1016.2 |
| 20260504185940 | 18 | 153 | 3.2 | 6.4 | 0.00 | 0.00 | 0.00 | 21 | 1016.2 |
| 20260504185437 | 17 | 138 | 1.6 | 4.8 | 0.00 | 0.00 | 0.00 | 20 | 1016.0 |
| 20260504184933 | 17 | 3 | 1.6 | 4.8 | 0.00 | 0.00 | 0.00 | 23 | 1016.2 |
| 20260504184429 | 17 | 129 | 1.6 | 9.7 | 0.00 | 0.00 | 0.00 | 22 | 1016.2 |
| 20260504183925 | 18 | 213 | 3.2 | 9.7 | 0.00 | 0.00 | 0.00 | 21 | 1016.3 |
| 20260504183422 | 18 | 113 | 3.2 | 3.2 | 0.00 | 0.00 | 0.00 | 22 | 1016.5 |
| 20260504182920 | 18 | 87 | 0.0 | 6.4 | 0.00 | 0.00 | 0.00 | 21 | 1016.4 |
| 20260504182417 | 17 | 206 | 1.6 | 4.8 | 0.00 | 0.00 | 0.00 | 26 | 1016.3 |
| 20260504181914 | 18 | 131 | 3.2 | 4.8 | 0.00 | 0.00 | 0.00 | 25 | 1016.2 |
| 20260504181412 | 18 | 220 | 8.0 | 9.7 | 0.00 | 0.00 | 0.00 | 24 | 1016.3 |
| 20260504180910 | 17 | 182 | 6.4 | 12.9 | 0.00 | 0.00 | 0.00 | 24 | 1016.6 |
| 20260504180408 | 18 | 178 | 6.4 | 6.4 | 0.00 | 0.00 | 0.00 | 23 | 1016.6 |
| 20260504175906 | 17 | 174 | 1.6 | 4.8 | 0.00 | 0.00 | 0.00 | 26 | 1016.9 |
| 20260504175402 | 17 | 124 | 3.2 | 22.5 | 0.00 | 0.00 | 0.00 | 26 | 1016.9 |
| 20260504174900 | 17 | 103 | 3.2 | 4.8 | 0.00 | 0.00 | 0.00 | 26 | 1016.9 |
| 20260504174358 | 17 | 196 | 3.2 | 9.7 | 0.00 | 0.00 | 0.00 | 27 | 1016.8 |
| 20260504173855 | 18 | 235 | 6.4 | 6.4 | 0.00 | 0.00 | 0.00 | 25 | 1016.9 |
| 20260504173351 | 17 | 128 | 3.2 | 9.7 | 0.00 | 0.00 | 0.00 | 28 | 1016.9 |
| 20260504172849 | 17 | 163 | 3.2 | 6.4 | 0.00 | 0.00 | 0.00 | 29 | 1017.0 |
| 20260504172345 | 17 | 135 | 3.2 | 6.4 | 0.00 | 0.00 | 0.00 | 30 | 1017.0 |
| 20260504171841 | 17 | 153 | 4.8 | 9.7 | 0.00 | 0.00 | 0.00 | 28 | 1017.1 |
| 20260504171338 | 17 | 183 | 3.2 | 4.8 | 0.00 | 0.00 | 0.00 | 28 | 1016.9 |
| 20260504170835 | 16 | 162 | 3.2 | 4.8 | 0.00 | 0.00 | 0.00 | 31 | 1017.0 |
| 20260504170332 | 17 | 171 | 4.8 | 6.4 | 0.00 | 0.00 | 0.00 | 30 | 1017.1 |
| 20260504160251 | 14 | 169 | 1.6 | 4.8 | 0.00 | 0.00 | 0.00 | 34 | 1017.3 |
| 20260504150716 | 12 | 132 | 1.6 | 3.2 | 0.00 | 0.00 | 0.00 | 40 | 1018.0 |
| 20260504150213 | 12 | 139 | 3.2 | 4.8 | 0.00 | 0.00 | 0.00 | 40 | 1017.8 |
| 20260504141142 | 10 | 129 | 0.0 | 0.0 | 0.00 | 0.00 | 0.00 | 52 | 1017.9 |
| 20260504140639 | 10 | 140 | 0.0 | 1.6 | 0.00 | 0.00 | 0.00 | 55 | 1017.9 |
| 20260504140134 | 10 | 124 | 0.0 | 0.0 | 0.00 | 0.00 | 0.00 | 57 | 1018.0 |
| 20260504130603 | 8 | 133 | 0.0 | 1.6 | 0.00 | 0.00 | 0.00 | 56 | 1017.4 |